SL-16 DEB, 39848

Orbit data source: Space-Track

SL-16 DEB, 39848 is space debris in LEO originally from a launch on Fri, 25 Dec 1992 UTC launched from the Tyuratam Missile And Space Complex (TTMTR). Debris objects in space refer to the collection of defunct objects orbiting the Earth. Examples of debris include non-operational satellites, rocket bodies, and fragments generated from explosions, collisions, or faulty payload assembly.

Loading next visibility...
Identifier
39848, 1992-093LA
Orbit
LEO
Country
Flag of CISCIS
Related business
Manufacturer
Unknown
Mission
Spacecraft
Bus & Motor
Unknown
Mass
Unknown
Launch date (UTC)
1992-12-25 (33 years ago)
Launch vehicle
Unknown
Launch site
Tyuratam Missile And Space Complex (TTMTR)
Object type
Payload
Rocket body
Debris
Shape & HBR
Unknown shape, 0.1 m
Radar Cross Section
Small (<0.1 m²)

Expand to show TLE details & history
Last TLE update: 2 weeks ago

TLE from 2 weeks ago
0 SL-16 DEB
1 39848U 92093LA  25336.85624279  .00037284  00000-0  41412-2 0  9995
2 39848  71.2155 186.2734 0029224 174.7866 185.3606 14.86711671595756
Epoch: 2025-12-02T20:32Z
TLE epoch observation values (Epoch: 2025-12-02T20:32:59.377Z)
Latitude
-0.00001°
Longitude
166.0906°
Altitude
631.045 km
Speed
7.532 km/s
True Right ascension
12h 25m 05s
True Declination
0° 00' 00"
Sunlit
Object was in daylight at epoch
Visualization orbit readout
Latitude
Unknown
Longitude
Unknown
Altitude
Unknown
Speed
Unknown
Apparent Right ascension
Unknown
Apparent Declination
Unknown
Sunlit
N/A
Visualization observer readout
Local Sidereal Time
06:14:43
Azimuth
Unknown
Elevation
Unknown
Doppler factor
Unknown
Orbital elements
Apogee altitude
626.462 km
Perigee altitude
585.641 km
Semi-major axis
6,984.189 km
Eccentricity
0.00292
Inclination
71.2155°
RAAN
186.2734°
Arg. of periapsis
174.7866°
True anomaly
185.32943°
Mean anomaly
185.3606°
Eccentric anomaly
185.345°
Mean motion
3.71851 °/min
Orbital period
96.81 mins
BSTAR
0.0041412
Loading maneuver chart data...
Computing Atmospheric mass density...
Loading historical data...
Loading historical data...
Loading historical data...
Loading historical data...
Loading historical data...
Loading historical data...
Loading historical data...

Documentation

Showing up to 5 results
|